Home > Weather > Klaksvík > Past weeks

Flag for Faroe Islands Past Weather in Klaksvík, Faroe Islands, Faroe Islands — Yesterday and Last 2 Weeks

Now
48 °F

Overcast.


Feels Like: 47 °F
Forecast: 42 / 55 °F
Wind: 3 mph from Northeast

Location: Thorshavn

Current Time: May 30, 2016 at 9:34:15 PM

Latest Report: May 30, 2016 at 8:00 PM


Visibility: 17 mi

Pressure: 30.39 "Hg

Humidity: 94%

Dew Point: 46 °F

Location of KlaksvíkLocation

Past Weather in Klaksvík — Graph

°F

Klaksvík Temperature Yesterday

Maximum temperature yesterday: 51 °F (at 6:00 PM)
Minimum temperature yesterday: 43 °F (at 4:00 AM)
Average temperature yesterday: 45 °F

High & Low Weather Summary for the Past Weeks

 TemperatureHumidityPressure
High51 °F (May 22, 12:00 PM)100% (May 20, 4:00 PM)30.50 "Hg (May 20, 4:00 PM)
Low34 °F (May 17, 7:00 AM)51% (May 23, 2:00 PM)29.44 "Hg (May 21, 6:00 PM)
Average44 °F82%30.03 "Hg
* Reported May 15 8:00 PM — May 30 8:00 PM, Klaksvík, Weather by CustomWeather, © 2016

Note: Actual official high and low records may vary slightly from our data, if they occured in-between our weather recording intervals... More about our weather records

Advertising

Klaksvík Weather History for the Previous 24 Hours

Scroll right to see more
 ConditionsComfort  
Time TempWeatherWind HumidityBarometerVisibility
8:00 PM
Mon, May 30
48 °FOvercast.3 mph94%30.39 "Hg17 mi
7:00 PM48 °FLow clouds.3 mph95%30.38 "Hg15 mi
6:00 PM47 °FLow clouds.5 mph95%30.37 "Hg9 mi
4:00 PM49 °FLow clouds.5 mph94%30.37 "Hg15 mi
3:00 PM49 °FPassing clouds.6 mph88%30.36 "Hg19 mi
2:00 PM49 °FSunny.6 mph87%30.35 "Hg22 mi
1:00 PM50 °FPassing clouds.6 mph85%30.34 "Hg19 mi
12:00 PM50 °FPartly sunny.6 mph81%30.34 "Hg25 mi
11:00 AM48 °FOvercast.5 mph85%30.32 "Hg28 mi
10:00 AM48 °FOvercast.3 mph94%30.32 "Hg22 mi
9:00 AM47 °FOvercast.2 mph96%30.31 "Hg16 mi
8:00 AM47 °FOvercast.2 mph93%30.29 "Hg22 mi
7:00 AM47 °FOvercast.2 mph91%30.28 "Hg31 mi
6:00 AM46 °FOvercast.2 mph97%30.27 "Hg19 mi
5:00 AM46 °FLow clouds.1 mph98%30.27 "Hg8 mi
4:00 AM46 °FLow clouds.3 mph98%30.26 "Hg9 mi
3:00 AM46 °FOvercast.1 mph97%30.25 "Hg16 mi
2:00 AM46 °FOvercast.1 mph97%30.24 "Hg17 mi
1:00 AM46 °FOvercast.1 mph95%30.23 "Hg25 mi
12:00 AM46 °FOvercast.No wind96%30.22 "Hg31 mi
11:00 PM
Sun, May 29
46 °FOvercast.2 mph96%30.21 "Hg28 mi
10:00 PM46 °FOvercast.2 mph94%30.19 "Hg31 mi
9:00 PM47 °FOvercast.3 mph92%30.18 "Hg31 mi
Weather by CustomWeather, © 2016

See weather overviewHow to use our weather pages